Муторай

Россия / Красноярский край     61°01′24″N   100°45′22″E
темп.,
°C
ветер,
м/с
пор.,
м/с
влажн.,
%
обл.,
%
осадки,
мм/ч
давл.,
гПа
погр.,
м
17 июня, чт
чт1701:00+12з11555 0.0 101210
04:00+11юз11625 0.0 101310
07:00+17юз11495 0.0 1012178
10:00+22ююз01360 0.0 10111150
13:00+24ююз12285 0.0 10102617
16:00+24юз12295 0.0 10092807
19:00+22в22463 0.0 100845
22:00+15юв357082 0.0 100987
18 июня, пт
пт1801:00+13ююв266513 0.0 100994
04:00+12ююв36705 0.0 1008109
07:00+18ююв355532 0.0 1008303
10:00+22ююв3440100 0.0 10071041
13:00+25юв343062 0.0 10052963
16:00+25вюв44314 0.0 10042503
19:00+21вюв49466 0.0 1004428
22:00+17вюв375699 0.0 1005136
19 июня, сб
сб1901:00+15юв276651 0.0 1004128
04:00+15вюв396789 0.0 1004218
07:00+18юв355840 0.0 1005275
10:00+23вюв344135 0.0 10041523
13:00+22вюв354999 0.0 1004697
16:00+19в1258100 0.0 100459
19:00+19юв256663 0.0 1004247
22:00+14ю118493 0.0 100511
20 июня, вс
вс2001:00+13всв1183100 0.0 100510
04:00+13св118569 0.1 100510
07:00+18всв24695 0.1 1004424
10:00+21вюв225910 0.5 10041226
13:00+22ю1252100 1.1 1004985
16:00+21юв235471 0.0 1003491
19:00+22в125661 0.0 1004219
22:00+17св116658 0.0 100411
21 июня, пн
пн2101:00+14вюв228385 0.0 100647
04:00+14всв238543 0.0 100662
07:00+18вюв246994 0.0 1006299
10:00+19в3367100 0.0 1006488
13:00+23всв235325 0.0 1006860
16:00+24св214715 0.0 10051655
19:00+21вюв126573 0.1 100581
22:00+17ююз228173 0.6 100631